Regional Weather Roundup
Issued by NWS Jackson, KY

Home | Current Version | Previous Version | Graphics & Text | Print | Product List | Glossary On
Versions: 1 2 3 4 5 6 7 8 9 10 11 12 13 14 15 16 17 18 19 20 21 22 23 24 25 26 27 28 29 30 31 32 33 34 35 36 37 38 39 40 41 42 43 44 45 46 47 48 49 50
000
ASUS43 KJKL 260305
RWRJKL

EAST KENTUCKY HOURLY WEATHER ROUNDUP
NATIONAL WEATHER SERVICE JACKSON KY
1000 PM EST TUE NOV 25 2014

NOTE: "FAIR" INDICATES FEW OR NO CLOUDS BELOW 12,000 FEET WITH
NO SIGNIFICANT WEATHER AND/OR OBSTRUCTIONS TO VISIBILITY.

* THESE REPORTS ARE NOT UNDER NWS QUALITY CONTROL AND MAY NOT
  REPORT WEATHER SUCH AS PRECIPITATION AND FOG.

KYZ079-080-083-085-087-088-110-112-115-119-120-260400
...EASTERN KENTUCKY...

CITY           SKY/WX    TMP DP  RH WIND       PRES   REMARKS
JACKSON        MOCLDY    40  28  62 CALM      30.11F
LONDON         CLOUDY    43  29  57 CALM      30.12S
SOMERSET*      CLOUDY    39  27  60 N5        30.15R
MONTICELLO*    CLOUDY    41  28  60 CALM      30.17S
MIDDLESBORO*   CLOUDY    43  32  65 CALM      30.13R
HARLAN APT*    CLOUDY    45  28  53 CALM      30.10S
BLACK MTN*       N/A     36  25  64 N6          N/A  WCI  31
PIKEVILLE APT* CLEAR     43  28  56 N9        30.10
BIG SANDY*     CLOUDY    42  29  61 N3        30.11F
MOREHEAD APT*  MOCLDY    39  27  60 CALM      30.15F
$$

KYZ035-036-041-042-044-050-067-078-099-260400
...CENTRAL KENTUCKY...

CITY           SKY/WX    TMP DP  RH WIND       PRES   REMARKS
MT STERLING*   CLOUDY    37  30  75 CALM      30.15F
FLEMING/MASON* CLOUDY    36  29  76 N8        30.15F WCI  29
DANVILLE*      CLOUDY    36  30  80 CALM      30.15F
RICHMOND*      CLOUDY    37  27  65 CALM      30.14S
LEXINGTON      CLOUDY    36  27  69 N5        30.14F WCI  32
FRANKFORT      CLOUDY    35  27  72 NW3       30.15S
$$

KYZ091>093-OHZ055-061-077-WVZ005-015-034-035-042-260400
...SOUTHERN OHIO/WEST VIRGINIA...

CITY           SKY/WX    TMP DP  RH WIND       PRES   REMARKS
COVINGTON      CLOUDY    32  25  75 N7        30.18R WCI  26
COLUMBUS       MOCLDY    30  25  81 N7        30.19R WCI  23
DAYTON         CLOUDY    30  25  81 NE5       30.19R WCI  25
WILMINGTON     MOCLDY    30  26  85 N6        30.17S WCI  24
HUNTINGTON     MOCLDY    40  29  64 N7        30.14R
CHARLESTON     CLOUDY    43  27  53 N3        30.14R
PINEVILLE*     CLOUDY    38  35  87 MISG      30.14F
BECKLEY        CLOUDY    39  26  59 CALM      30.10R
BLUEFIELD      CLOUDY    44  21  40 CALM      30.09R
$$

VAZ002-007-008-TNZ017-027-036-066-071-260400
...SOUTHWEST VIRGINIA/EAST TENNESSEE...

CITY           SKY/WX    TMP DP  RH WIND       PRES   REMARKS
WISE*          CLOUDY    43  25  49 N5        30.09S
JONESVILLE*    CLOUDY    39  36  87 CALM      30.12R
ABINGDON*      CLOUDY    42  32  67 E3        30.08F
BRISTOL        CLOUDY    43  33  68 CALM      30.10S
KNOXVILLE      CLOUDY    49  30  48 N6        30.07S
OAK RIDGE      CLOUDY    49  29  46 CALM      30.09F
CROSSVILLE     CLOUDY    43  28  55 CALM      30.11R
NASHVILLE      CLOUDY    42  27  55 NW6       30.17R
$$

...KEY TO REMARKS...
VSB - VISIBILITY IN MILES
WCI - WIND CHILL INDEX
HX  - HEAT INDEX

$$


USA.gov is the U.S. government's official web portal to all federal, state and local government web resources and services.